SKYNET 5B

Last updated on Sun Oct 06 2024 00:02:38 GMT+0000 (Coordinated Universal Time)

1 32294U 07056B 24279.54584532 .00000153 00000+0 00000+0 0 9995 2 32294 3.6649 80.8270 0003763 114.6827 40.7963 1.00272190 61988
UTC large
Height (km)
Speed (km/s)
/
Latitude / Longitude
Inclination (degrees)
Orbital Period (minutes)
Azimuth
Elevation
Range (km)
Doppler Factor

Next 0 passes for location: London (51.5072 / 0.1276)

Sorry there are no passes over London.